Tracking 27112 objects as of 26-Mar-2023
HD Live streaming from Space Station
objects crossing your sky now

STARLINK-2053

Track STARLINK-2053 now!
10-day predictions
STARLINK-2053 is classified as:


NORAD ID: 47663
Int'l Code: 2021-012AV
Perigee: 553.5 km
Apogee: 555.4 km
Inclination: 53.1 °
Period: 95.6 minutes
Semi major axis: 6925 km
RCS: Unknown
Launch date: February 16, 2021
Source: United States (US)
Launch site: AIR FORCE EASTERN TEST RANGE (AFETR)
Your satellite tracking list
Your tracking list is empty




NASA's NSSDC Master Catalog

Two Line Element Set (TLE):
1 47663U 21012AV  23085.17398421 -.00010663  00000-0 -69855-3 0  9999
2 47663  53.0526 138.0690 0001369 115.2459 244.8672 15.06373671118150
Source of the keplerian elements: AFSPC